[[{"header":{"parameterUnit":"m.s-1","parameterCategory":1,"la1":30.2991,"la2":30.254,"lo1":-89.0895,"lo2":-89.0444,"dy":0.0017,"dx":0.0017,"nx":28,"ny":28,"refTime":"2025-03-05T03:00:00:Z","depth":0,"parameterNumber":2,"parameterNumberName":"U-component_of_WINDS"},"data":[0,0,0,0,0,0,0,0,0,0,0,0,0,0,0,0,0,0,0,0,0,0,0,0,0,0,0,0,0,0,0,0,0,0,0,0,0,0,0,0,0,0,0,0,0,0,0,0,0,0,0,0,0,0,0,0,0,0,6.2699,6.2701,0,6.2857,6.2858,6.286,6.2792,6.2788,6.2785,6.2781,6.2945,6.2952,6.296,0,0,0,0,0,0,0,0,0,0,0,0,0,6.2344,6.2351,6.2699,6.2701,6.2703,6.2856,6.2858,6.2861,6.2793,6.2788,6.2784,6.2779,6.2942,6.2951,6.2961,0,0,0,0,0,0,0,0,0,0,0,0,0,6.2499,6.2353,6.2699,6.2688,6.2688,6.2856,6.2859,6.2861,6.2794,6.2788,6.2782,6.2777,6.2939,6.295,6.2962,6.3151,0,0,6.2998,6.3004,0,0,0,0,0,0,0,0,6.2491,6.2513,6.2687,6.2689,6.269,6.2799,6.2793,6.2958,6.2795,6.2754,6.2781,6.2774,6.2901,6.2916,6.2958,6.3158,6.3165,6.2999,6.3007,6.3012,6.3015,0,0,0,0,0,0,0,6.248,6.2505,6.2761,6.269,6.2691,6.2676,6.2692,6.2824,6.2858,6.2757,6.2753,6.2772,6.29,6.2946,6.2961,6.3168,6.2999,6.301,6.3017,6.3022,6.3534,6.3541,0,0,0,0,0,0,6.2469,6.2497,6.2756,6.2766,6.2574,6.2687,6.2705,6.277,6.2856,6.2864,6.2777,6.2768,6.2929,6.2947,6.2967,6.3195,6.3012,6.3023,6.303,6.3528,6.3536,6.3543,0,0,0,0,0,0,6.2461,6.2493,6.275,6.263,6.2662,6.2699,6.2773,6.2776,6.2822,6.2871,6.2877,6.2817,6.2925,6.295,6.3106,6.32,6.3028,6.3039,6.352,6.353,6.3539,6.3653,0,0,0,0,0,0,6.2451,6.249,6.2561,6.2632,6.2669,6.2886,6.2779,6.2783,6.2842,6.2833,6.2911,6.2918,6.2923,6.3089,6.3118,6.3213,6.3048,6.3512,6.3525,6.3536,6.3641,6.3665,6.3686,0,0,0,0,0,6.2439,6.2587,6.2565,6.2597,6.2758,6.2891,6.2912,6.2914,6.285,6.2922,6.2955,6.2916,6.3185,6.3105,6.3137,6.3238,6.3506,6.3521,6.3535,6.3631,6.3661,6.3686,0,0,0,0,0,0,6.2525,6.2596,6.2572,6.2747,6.2814,6.288,6.2971,6.2945,6.3031,6.3019,6.3017,6.3036,6.3198,6.3233,6.3143,6.3427,6.3336,6.3358,6.3398,6.3426,6.3448,6.3437,6.3058,0,0,0,0,0,6.2565,6.2666,6.2722,6.2871,6.2906,6.2933,6.2991,6.2987,6.3056,6.3084,6.3127,6.3197,6.3297,6.3363,6.3458,6.3646,6.3663,6.3731,6.3753,6.3772,6.3791,6.3896,6.3927,6.3591,6.3591,6.359,0,0,6.2647,6.2698,6.2762,6.289,6.2941,6.3048,6.2957,6.3073,6.3153,6.3102,6.3252,6.3287,6.3365,6.3538,6.3617,6.3573,6.3888,6.379,6.3805,6.3814,6.3914,6.3946,6.3974,6.3601,6.3599,6.3597,0,0,6.2852,6.29,6.303,6.3084,6.3163,6.318,6.3212,6.3282,6.3304,6.3454,6.3419,6.3515,6.3687,6.3745,6.3797,6.4027,6.3996,6.4058,6.4177,6.4279,6.4305,6.4329,6.4414,6.4444,6.4077,6.4077,6.4077,0,6.2945,6.3103,6.3101,6.3221,6.328,6.3238,6.3372,6.3424,6.353,6.3573,6.3522,6.3739,6.3788,6.3976,6.4033,6.4075,6.4113,6.4049,6.4301,6.4325,6.4347,6.4428,6.446,6.4084,6.4084,6.4083,6.4082,0,6.3215,6.3326,6.3422,6.3526,6.3595,6.3721,6.374,6.3811,6.3801,6.3825,6.3981,6.4039,6.4146,6.419,6.4181,6.4378,6.4349,6.43,6.4209,6.4387,6.4463,6.4493,6.4095,6.4092,6.409,6.4088,0,0,6.3478,6.358,6.3616,6.3664,6.3749,6.3835,6.3961,6.4066,6.4128,6.4203,6.431,6.4458,6.4414,6.4474,6.4471,6.4561,6.4743,6.4501,6.4503,6.4546,6.4967,6.5004,6.504,6.4723,6.4728,6.4733,6.4961,0,6.3691,6.391,6.3913,6.4116,6.422,6.4183,6.4293,6.4358,6.4384,6.4478,6.4506,6.4612,6.4545,6.4581,6.4668,6.4703,6.4828,6.4686,6.4824,6.4829,6.4807,6.5079,6.5119,6.5331,6.4991,6.4996,6.4999,0,6.3968,6.4053,6.4266,6.4339,6.4383,6.4481,6.4579,6.4668,6.4742,6.4755,6.4823,6.4808,6.4938,6.4843,6.5024,6.4928,6.4985,6.5011,6.5019,6.5033,6.4926,6.5103,6.5398,6.5431,6.5046,6.5042,6.5038,0,6.4142,6.4309,6.4459,6.4501,6.4589,6.4659,6.47,6.4768,6.4832,6.4918,6.496,6.506,6.5116,6.5195,6.5208,6.5137,6.5391,6.5296,6.5408,6.5408,6.5463,6.546,6.5775,6.5498,6.5497,6.5496,6.5496,0,6.438,6.4513,6.4538,6.4631,6.4779,6.4782,6.4929,6.4964,6.5026,6.5126,6.51,6.5195,6.5206,6.5304,6.5316,6.5466,6.5491,6.5506,6.5508,6.551,6.5508,6.5548,6.5534,6.5505,6.5503,6.5501,6.55,0,6.4599,6.4621,6.4783,6.4853,6.4874,6.4981,6.5042,6.5132,6.5155,6.5282,6.5312,6.5351,6.5466,6.5487,6.5622,6.563,6.581,6.5796,6.5785,6.5784,6.5895,6.5885,6.6247,6.6296,6.5986,6.5988,6.5991,0,6.4751,6.4852,6.4934,6.4999,6.5043,6.5147,6.5213,6.5221,6.529,6.5384,6.5463,6.5575,6.5665,6.5851,6.5892,6.5996,6.5986,6.6106,6.6001,6.6001,6.599,6.5985,6.5996,6.6126,6.6129,6.6132,6.6134,0,6.5018,6.5025,6.512,6.522,6.5299,6.5378,6.5453,6.5508,6.5526,6.5606,6.5723,6.5793,6.5932,6.6045,6.615,6.6192,6.6169,6.6167,6.6199,6.6202,6.6192,6.6202,6.5842,6.6159,6.6156,6.6154,6.6153,6.6152,6.521,6.5299,6.5371,6.5479,6.5536,6.5608,6.5696,6.5732,6.5829,6.5943,6.5942,6.6071,6.6146,6.6283,6.6333,6.6436,6.6398,6.6443,6.6455,6.6467,6.6478,6.6175,6.6455,6.6454,6.6453,6.6453,6.6452,0,6.5478,6.5523,6.5622,6.5728,6.5814,6.5782,6.5864,6.5938,6.6052,6.6123,6.6213,6.635,6.6459,6.651,6.6618,6.6691,6.6683,6.672,6.6715,6.6726,6.6505,6.6467,6.6725,6.6725,6.6725,6.6725,6.6724,6.6724,6.5627,6.5778,6.5794,6.5973,6.6018,6.6144,6.6194,6.6261,6.6318,6.6471,6.6562,6.6594,6.6658,6.6772,6.6872,6.6884,6.6926,6.6969,6.6976,6.6769,6.6741,6.6715,6.668,6.6978,6.6978,6.7189,6.7191,6.7193]},{"header":{"parameterUnit":"m.s-1","parameterCategory":1,"la1":30.2991,"la2":30.254,"lo1":-89.0895,"lo2":-89.0444,"dy":0.0017,"dx":0.0017,"nx":28,"ny":28,"refTime":"2025-03-05T03:00:00:Z","depth":0,"parameterNumber":3,"parameterNumberName":"V-component_of_WINDS"},"data":[0,0,0,0,0,0,0,0,0,0,0,0,0,0,0,0,0,0,0,0,0,0,0,0,0,0,0,0,0,0,0,0,0,0,0,0,0,0,0,0,0,0,0,0,0,0,0,0,0,0,0,0,0,0,0,0,0,0,-5.5263,-5.5265,0,-5.5451,-5.5453,-5.5455,-5.5437,-5.5434,-5.5431,-5.5428,-5.5621,-5.5629,-5.5637,0,0,0,0,0,0,0,0,0,0,0,0,0,-5.4892,-5.4899,-5.5263,-5.5265,-5.5268,-5.545,-5.5453,-5.5455,-5.5437,-5.5434,-5.543,-5.5427,-5.5619,-5.5628,-5.5637,0,0,0,0,0,0,0,0,0,0,0,0,0,-5.5064,-5.4901,-5.5263,-5.5281,-5.5284,-5.545,-5.5453,-5.5456,-5.5438,-5.5434,-5.5429,-5.5425,-5.5616,-5.5627,-5.5639,-5.5799,0,0,-5.5675,-5.568,0,0,0,0,0,0,0,0,-5.5054,-5.5077,-5.5276,-5.528,-5.5284,-5.5416,-5.5393,-5.5571,-5.5439,-5.538,-5.5428,-5.5423,-5.5557,-5.5573,-5.5618,-5.5808,-5.5816,-5.5676,-5.5683,-5.5688,-5.5691,0,0,0,0,0,0,0,-5.5042,-5.5069,-5.5337,-5.5279,-5.5284,-5.528,-5.53,-5.5426,-5.549,-5.5384,-5.5384,-5.5406,-5.5558,-5.5606,-5.5622,-5.5819,-5.5675,-5.5686,-5.5693,-5.5698,-5.6152,-5.6157,0,0,0,0,0,0,-5.5025,-5.5059,-5.5331,-5.5343,-5.5156,-5.529,-5.5312,-5.5378,-5.5489,-5.5502,-5.5409,-5.5404,-5.5588,-5.5608,-5.5629,-5.5825,-5.5688,-5.5699,-5.5706,-5.6147,-5.6153,-5.6159,0,0,0,0,0,0,-5.5018,-5.505,-5.5324,-5.5201,-5.5235,-5.5301,-5.5375,-5.5384,-5.5432,-5.5508,-5.5519,-5.5447,-5.5586,-5.5612,-5.5757,-5.5832,-5.5704,-5.5715,-5.6141,-5.6149,-5.6156,-5.6218,0,0,0,0,0,0,-5.5007,-5.5047,-5.5108,-5.5202,-5.5242,-5.5448,-5.538,-5.5391,-5.5452,-5.5448,-5.5546,-5.5558,-5.5584,-5.574,-5.5769,-5.5845,-5.5724,-5.6135,-5.6145,-5.6154,-5.621,-5.6227,-5.6241,0,0,0,0,0,-5.4994,-5.5118,-5.5111,-5.5144,-5.5319,-5.5453,-5.5475,-5.5503,-5.5458,-5.5521,-5.557,-5.5555,-5.5818,-5.5755,-5.5787,-5.5869,-5.613,-5.6142,-5.6153,-5.6203,-5.6223,-5.6241,0,0,0,0,0,0,-5.503,-5.513,-5.5124,-5.5282,-5.5359,-5.5449,-5.5528,-5.5523,-5.5615,-5.5606,-5.5636,-5.5659,-5.5805,-5.5851,-5.5778,-5.6031,-5.5969,-5.5987,-5.5995,-5.6016,-5.6031,-5.6017,-5.5734,0,0,0,0,0,-5.5057,-5.5156,-5.5238,-5.537,-5.5409,-5.5462,-5.5521,-5.5535,-5.5616,-5.5649,-5.5708,-5.5788,-5.5889,-5.5955,-5.6051,-5.6216,-5.6238,-5.6288,-5.6304,-5.6317,-5.6333,-5.6425,-5.6449,-5.6196,-5.6196,-5.6195,0,0,-5.5113,-5.5179,-5.524,-5.5379,-5.544,-5.5543,-5.549,-5.56,-5.5678,-5.5666,-5.5807,-5.5853,-5.5944,-5.61,-5.6172,-5.6143,-5.6407,-5.6331,-5.6341,-5.635,-5.6439,-5.6463,-5.6484,-5.6203,-5.6202,-5.6201,0,0,-5.5267,-5.5327,-5.5444,-5.5507,-5.56,-5.5635,-5.5663,-5.5755,-5.5786,-5.5927,-5.5921,-5.6014,-5.6186,-5.6252,-5.6308,-5.6489,-5.648,-5.652,-5.6603,-5.6693,-5.6713,-5.6731,-5.6797,-5.682,-5.6535,-5.6536,-5.6536,0,-5.5324,-5.5479,-5.5505,-5.5618,-5.5679,-5.5674,-5.5793,-5.5853,-5.5974,-5.6017,-5.5983,-5.6201,-5.6261,-5.6434,-5.6478,-5.6523,-5.6558,-5.6509,-5.6708,-5.6726,-5.6743,-5.6807,-5.6832,-5.654,-5.6539,-5.6539,-5.6538,0,-5.5546,-5.5653,-5.5737,-5.5854,-5.5925,-5.604,-5.6085,-5.6154,-5.6163,-5.6202,-5.6347,-5.642,-5.6533,-5.6574,-5.6584,-5.6749,-5.6728,-5.6701,-5.664,-5.6771,-5.6832,-5.6856,-5.6546,-5.6545,-5.6543,-5.6542,0,0,-5.5728,-5.5859,-5.5889,-5.5943,-5.6046,-5.613,-5.6246,-5.6356,-5.6416,-5.65,-5.6599,-5.6746,-5.6722,-5.6785,-5.6802,-5.6881,-5.7022,-5.6844,-5.6846,-5.6876,-5.7211,-5.7232,-5.726,-5.7016,-5.7021,-5.7025,-5.7204,0,-5.5894,-5.6099,-5.6127,-5.6308,-5.6409,-5.6406,-5.6507,-5.6582,-5.6622,-5.6714,-5.6758,-5.6863,-5.6822,-5.686,-5.6938,-5.6988,-5.709,-5.6976,-5.711,-5.7115,-5.7089,-5.7291,-5.7313,-5.7479,-5.7227,-5.7231,-5.7234,0,-5.6115,-5.6205,-5.6397,-5.6488,-5.6532,-5.6622,-5.6726,-5.6813,-5.6899,-5.6923,-5.6995,-5.7002,-5.7124,-5.7057,-5.7226,-5.7147,-5.7204,-5.7237,-5.7245,-5.7259,-5.7183,-5.7312,-5.7532,-5.7557,-5.7271,-5.7268,-5.7266,0,-5.6231,-5.64,-5.6537,-5.6583,-5.6693,-5.6757,-5.6805,-5.6887,-5.6952,-5.7043,-5.7086,-5.719,-5.7247,-5.7328,-5.7364,-5.7312,-5.7532,-5.7467,-5.7556,-5.7555,-5.7603,-5.76,-5.7836,-5.7637,-5.7637,-5.7637,-5.7636,0,-5.6414,-5.6532,-5.6591,-5.6676,-5.6808,-5.6839,-5.697,-5.7017,-5.7089,-5.7184,-5.7187,-5.7276,-5.7317,-5.7413,-5.7442,-5.7579,-5.7604,-5.7628,-5.7634,-5.7628,-5.7626,-5.7667,-5.7657,-5.7643,-5.7642,-5.764,-5.7639,0,-5.6566,-5.661,-5.676,-5.6851,-5.6877,-5.6971,-5.705,-5.7133,-5.7172,-5.7292,-5.7322,-5.7384,-5.7497,-5.7541,-5.7679,-5.7698,-5.7856,-5.7853,-5.7828,-5.783,-5.7917,-5.7908,-5.8189,-5.8228,-5.8002,-5.8004,-5.8006,0,-5.668,-5.6771,-5.6873,-5.6936,-5.6987,-5.7089,-5.7156,-5.719,-5.7259,-5.7365,-5.7436,-5.7548,-5.764,-5.7821,-5.7879,-5.7985,-5.7985,-5.8076,-5.8001,-5.7993,-5.7989,-5.7983,-5.7994,-5.809,-5.8093,-5.8095,-5.8096,0,-5.6879,-5.6897,-5.6992,-5.7096,-5.7176,-5.7259,-5.7341,-5.7393,-5.744,-5.7518,-5.7633,-5.7705,-5.7846,-5.7959,-5.8068,-5.8119,-5.8117,-5.8119,-5.8146,-5.8141,-5.8123,-5.8136,-5.7867,-5.8113,-5.8111,-5.811,-5.8109,-5.8108,-5.7017,-5.7098,-5.7183,-5.729,-5.7355,-5.7431,-5.7514,-5.7564,-5.7661,-5.7778,-5.7793,-5.7918,-5.8003,-5.815,-5.8206,-5.8304,-5.828,-5.8318,-5.8328,-5.8337,-5.8344,-5.8107,-5.8324,-5.8324,-5.8323,-5.8323,-5.8323,0,-5.7218,-5.7272,-5.737,-5.7484,-5.7569,-5.7558,-5.7648,-5.772,-5.7829,-5.7909,-5.8,-5.8134,-5.8243,-5.831,-5.8421,-5.8487,-5.8489,-5.8515,-5.8511,-5.8524,-5.8359,-5.8325,-5.8512,-5.8512,-5.8512,-5.8512,-5.8512,-5.8512,-5.7332,-5.747,-5.7498,-5.7668,-5.7722,-5.7844,-5.7897,-5.7968,-5.8032,-5.8181,-5.8272,-5.8315,-5.839,-5.8507,-5.8607,-5.8624,-5.8665,-5.8694,-5.8709,-5.8554,-5.8535,-5.8516,-5.8485,-5.8702,-5.8703,-5.8866,-5.8868,-5.8869]}]]